Simultaneous Nadir Overpasses (SNOs) Predictions

Prediction of SNOs between GOES-14 and NOAA-20 Satellite Orbit:

Table of predicted SNOs for the next 14.0 days since TLE Epoch: 10/20/2024
Index Date Time (GOES-14) GOES-14 Lat,Lon NOAA-20 Lat,Lon Distance(km) Time Diff (sec)
1 10/21/2024 20:38:36 0.07,-108.55 -0.07,-109.06 59.55 80
2 10/22/2024 20:22:33 0.08,-108.55 0.99,-104.54 456.94 80
3 10/24/2024 08:44:21 -0.07,-108.61 0.18,-109.82 137.21 80
4 10/25/2024 08:22:57 -0.08,-108.61 -0.84,-105.29 379.00 80
5 10/26/2024 20:44:52 0.07,-108.56 -0.41,-110.58 231.35 80
6 10/27/2024 20:28:48 0.08,-108.57 0.62,-106.06 285.65 80
7 10/29/2024 08:50:36 -0.07,-108.64 0.53,-111.34 306.83 80
8 10/30/2024 08:29:11 -0.08,-108.65 -0.51,-106.81 209.83 80
9 10/31/2024 20:51:07 0.06,-108.59 -0.71,-112.11 400.79 80
10 11/01/2024 20:35:01 0.07,-108.59 0.27,-107.57 116.24 80
